Weather History for K1M4 - October, 2012

Change the Weather History Date:

Saturday, October 6, 2012

  Actual Average (KJFX) Record (KJFX)
Temperature  
Mean Temperature 54 °F -  
Max Temperature 62 °F 77 °F 90 °F (1962)
Min Temperature 47 °F 48 °F 34 °F (1961)
Degree Days  
Heating Degree Days 10    
Growing Degree Days 4 (Base 50)    
Moisture  
Dew Point 52 °F    
Average Humidity 94    
Maximum Humidity 100    
Minimum Humidity 77    
Precipitation  
Precipitation 0.41 in - - ()
Sea Level Pressure  
Sea Level Pressure 30.11 in    
Wind  
Wind Speed 6 mph (North)    
Max Wind Speed 15 mph    
Max Gust Speed 20 mph    
Visibility 7 miles    
Events Fog , Rain , Thunderstorm    
Averages and records for this station are not official NWS values.
T = Trace of Precipitation, MM = Missing Value Source: NWS Daily Summary

Daily Weather History Graph

Daily Weather History Graph

Search for Another Location

Airport or City:

Trip Planner

Search our weather history database for the weather conditions in past years. The results will help you decide how hot, cold, wet, or windy it might be!

Date:

Astronomy

Oct. 06, 2012 Rise Set
Actual Time 6:49 AM CDT 6:27 PM CDT
Civil Twilight 6:23 AM CDT 6:52 PM CDT
Nautical Twilight 5:54 AM CDT 7:21 PM CDT
Astronomical Twilight 5:25 AM CDT 7:50 PM CDT
Moon 10:53 PM CDT (10/6) 12:31 PM CDT (10/6)
Length of Visible Light 12h 28m
Length of Day
11h 38m
Waning Gibbous, 65% of the Moon is Illuminated
Oct 6
Waning Gibbous
Oct 8
Last Quarter
Oct 15
New
Oct 21
First Quarter
Oct 29
Full

Hourly Weather History & Observations

Time (CDT) Temp. Dew Point Humidity Pressure Visibility Wind Dir Wind Speed Gust Speed Precip Events Conditions
12:56 AM 59.9 °F 57.9 °F 93% 30.09 in 10.0 mi Calm Calm - N/A   Clear
1:56 AM 59.0 °F 59.0 °F 100% 30.08 in 8.0 mi Calm Calm - N/A   Clear
2:56 AM 61.9 °F 59.0 °F 90% 30.06 in 10.0 mi Calm Calm - N/A   Clear
3:56 AM 61.0 °F 59.0 °F 93% 30.09 in 10.0 mi NW 5.8 mph - N/A   Partly Cloudy
4:10 AM 62.6 °F 60.8 °F 94% 30.06 in 10.0 mi NNW 8.1 mph - N/A   Mostly Cloudy
4:22 AM 60.8 °F 60.8 °F 100% 30.06 in 2.5 mi NNW 13.8 mph - N/A   Overcast
4:24 AM 60.8 °F 60.8 °F 100% 30.07 in 1.8 mi NNW 12.7 mph - N/A   Overcast
4:29 AM 60.8 °F 60.8 °F 100% 30.07 in 1.2 mi North 9.2 mph - N/A   Overcast
4:35 AM 57.2 °F 57.2 °F 100% 30.07 in 0.8 mi North 13.8 mph 18.4 mph N/A   Overcast
4:56 AM 54.9 °F 54.9 °F 100% 30.12 in 0.8 mi NNW 15.0 mph 19.6 mph N/A   Overcast
5:01 AM 53.6 °F 53.6 °F 100% 30.09 in 1.2 mi North 12.7 mph 19.6 mph N/A   Overcast
5:06 AM 53.6 °F 53.6 °F 100% 30.09 in 2.0 mi North 6.9 mph - N/A   Overcast
5:18 AM 53.6 °F 53.6 °F 100% 30.08 in 6.0 mi North 5.8 mph - N/A   Overcast
5:56 AM 52.9 °F 52.9 °F 100% 30.12 in 8.0 mi NNE 6.9 mph - N/A   Overcast
6:23 AM 53.6 °F 51.8 °F 94% 30.08 in 10.0 mi NNE 6.9 mph - 0.00 in Rain Light Rain
6:39 AM 53.6 °F 51.8 °F 94% 30.08 in 10.0 mi NNE 6.9 mph - 0.00 in Rain , Thunderstorm Light Thunderstorms and Rain
6:56 AM 52.0 °F 50.9 °F 96% 30.15 in 4.0 mi NNW 9.2 mph - 0.04 in Rain , Thunderstorm Heavy Thunderstorms and Rain
6:59 AM 51.8 °F 51.8 °F 100% 30.12 in 1.8 mi North 11.5 mph 18.4 mph 0.06 in Rain , Thunderstorm Heavy Thunderstorms and Rain
7:01 AM 51.8 °F 51.8 °F 100% 30.10 in 1.0 mi NNE 11.5 mph 18.4 mph 0.17 in Rain , Thunderstorm Heavy Thunderstorms and Rain
7:04 AM 51.8 °F 51.8 °F 100% 30.09 in 0.5 mi NE 10.4 mph 18.4 mph 0.26 in Fog , Rain , Thunderstorm Heavy Thunderstorms and Rain
7:13 AM 51.8 °F 51.8 °F 100% 30.11 in 1.0 mi NNW 6.9 mph - 0.30 in Rain , Thunderstorm Heavy Thunderstorms and Rain
7:15 AM 51.8 °F 51.8 °F 100% 30.12 in 1.8 mi NW 6.9 mph - 0.30 in Rain , Thunderstorm Heavy Thunderstorms and Rain
7:20 AM 51.8 °F 51.8 °F 100% 30.12 in 3.0 mi NNW 8.1 mph - 0.30 in Rain , Thunderstorm Thunderstorms and Rain
7:37 AM 51.8 °F 50.0 °F 94% 30.11 in 10.0 mi North 9.2 mph - 0.31 in Rain Light Rain
7:56 AM 50.0 °F 50.0 °F 100% 30.15 in 10.0 mi NNE 5.8 mph - 0.31 in   Overcast
8:24 AM 50.0 °F 50.0 °F 100% 30.13 in 10.0 mi North 11.5 mph - N/A   Overcast
8:56 AM 48.9 °F 48.9 °F 100% 30.17 in 10.0 mi North 15.0 mph 19.6 mph N/A   Overcast
9:56 AM 47.8 °F 47.8 °F 100% 30.17 in 8.0 mi NNE 9.2 mph - 0.00 in   Overcast
10:08 AM 48.2 °F 48.2 °F 100% 30.16 in 6.0 mi North 9.2 mph - N/A   Overcast
10:56 AM 47.8 °F 47.8 °F 100% 30.17 in 6.0 mi North 6.9 mph - N/A   Overcast
11:33 AM 50.0 °F 48.2 °F 94% 30.14 in 10.0 mi North 10.4 mph - N/A   Overcast
11:56 AM 50.9 °F 47.8 °F 89% 30.15 in 10.0 mi NNE 8.1 mph - N/A   Overcast
12:28 PM 51.8 °F 48.2 °F 88% 30.13 in 10.0 mi Variable 3.5 mph - N/A   Overcast
12:56 PM 52.0 °F 47.8 °F 86% 30.15 in 10.0 mi NNE 8.1 mph - N/A   Overcast
1:56 PM 52.0 °F 47.8 °F 86% 30.13 in 10.0 mi North 6.9 mph - N/A   Overcast
2:45 PM 55.4 °F 48.2 °F 77% 30.08 in 10.0 mi North 4.6 mph - N/A   Overcast
2:56 PM 54.9 °F 48.9 °F 80% 30.12 in 10.0 mi North 8.1 mph - N/A   Overcast
3:49 PM 55.4 °F 50.0 °F 82% 30.09 in 10.0 mi NNW 9.2 mph - N/A   Overcast
3:56 PM 55.9 °F 50.0 °F 80% 30.12 in 10.0 mi North 10.4 mph - N/A   Overcast
4:56 PM 55.9 °F 50.0 °F 80% 30.12 in 10.0 mi NNE 5.8 mph - N/A   Overcast
5:16 PM 55.4 °F 50.0 °F 82% 30.08 in 10.0 mi Calm Calm - N/A   Scattered Clouds
5:29 PM 53.6 °F 51.8 °F 94% 30.07 in 4.0 mi Calm Calm - 0.01 in Rain Rain
5:39 PM 53.6 °F 51.8 °F 94% 30.05 in 2.0 mi Calm Calm - 0.05 in Rain Heavy Rain
5:44 PM 53.6 °F 51.8 °F 94% 30.07 in 3.0 mi Calm Calm - 0.05 in Rain Light Rain
5:56 PM 52.9 °F 52.0 °F 97% 30.10 in 10.0 mi Calm Calm - 0.05 in   Scattered Clouds
6:56 PM 52.9 °F 52.0 °F 97% 30.13 in 10.0 mi Calm Calm - N/A   Overcast
7:56 PM 52.9 °F 50.0 °F 90% 30.15 in 10.0 mi Calm Calm - N/A   Overcast
8:26 PM 51.8 °F 48.2 °F 88% 30.12 in 7.0 mi Calm Calm - 0.01 in Rain Light Rain
8:56 PM 50.9 °F 48.9 °F 93% 30.17 in 10.0 mi Calm Calm - 0.01 in   Overcast
9:56 PM 48.9 °F 46.9 °F 93% 30.16 in 10.0 mi NNE 5.8 mph - N/A   Overcast
10:56 PM 47.8 °F 43.9 °F 86% 30.16 in 10.0 mi Calm Calm - N/A   Mostly Cloudy
11:56 PM 48.9 °F 43.9 °F 83% 30.18 in 10.0 mi North 8.1 mph - N/A   Overcast